DW8306 Weather Reports


Display with metric or nautical units.
time (UTC)temp
F
wind
direction
speed
MPH
gust
MPH
rain 1hr
in
rain 24hr
in
rain mn
in
humidity
%
barometer
mb
20260507084617 54 4 2.0 7.0 0.00 0.00 0.00 83 1014.9
20260507083021 55 335 3.0 9.0 0.00 0.00 0.00 83 1015.2
20260507081520 55 52 3.0 7.0 0.00 0.00 0.00 83 1015.1
20260507080012 55 11 0.0 6.0 0.00 0.00 0.00 84 1015.4
20260507074515 54 359 2.0 7.0 0.00 0.00 0.00 84 1015.6
20260507073013 54 334 2.0 8.0 0.00 0.00 0.00 84 1015.7
20260507071513 54 4 3.0 8.0 0.00 0.00 0.00 84 1015.8
20260507070113 54 83 2.0 9.0 0.00 0.00 0.00 84 1015.6
20260507064515 54 4 3.0 7.0 0.00 0.00 0.00 85 1016.0
20260507063009 54 11 3.0 8.0 0.00 0.00 0.00 84 1015.8
20260507061612 54 35 1.0 8.0 0.00 0.00 0.00 86 1015.5
20260507060003 54 4 2.0 5.0 0.00 0.00 0.00 87 1016.0
20260507054506 54 332 3.0 9.0 0.00 0.00 0.00 87 1016.0
20260507053018 54 354 4.0 9.0 0.00 0.00 0.00 88 1015.9
20260507051605 54 12 3.0 9.0 0.00 0.00 0.00 89 1015.5
20260507050014 54 330 5.0 10.0 0.00 0.00 0.00 89 1015.5
20260507044521 55 354 3.0 7.0 0.00 0.00 0.00 90 1015.4
20260507041518 55 41 0.0 7.0 0.00 0.00 0.00 90 1014.9
20260507040019 56 322 0.0 5.0 0.00 0.00 0.00 90 1015.0
20260507034607 56 326 3.0 9.0 0.00 0.00 0.00 89 1014.7
20260507033008 56 335 3.0 7.0 0.00 0.00 0.00 88 1014.8
20260507031506 56 27 1.0 7.0 0.00 0.00 0.00 88 1014.6
20260507030009 56 324 2.0 9.0 0.00 0.00 0.00 88 1014.3
20260507024510 56 347 2.0 7.0 0.00 0.00 0.00 89 1014.3
20260507023009 56 66 3.0 9.0 0.00 0.00 0.00 88 1014.0
20260507021506 57 13 3.0 9.0 0.00 0.00 0.00 87 1014.0
20260507020121 57 26 5.0 10.0 0.00 0.00 0.00 86 1013.6
20260507014512 58 8 4.0 12.0 0.00 0.00 0.00 86 1013.3
20260507013005 58 307 4.0 10.0 0.00 0.00 0.00 87 1012.8
20260507011607 58 4 2.0 8.0 0.00 0.00 0.00 87 1012.3
20260507010008 58 288 4.0 10.0 0.00 0.00 0.00 86 1012.2
20260507004505 59 312 3.0 10.0 0.00 0.00 0.00 86 1012.2
20260507003006 59 342 2.0 11.0 0.00 0.00 0.00 85 1012.2
20260507001529 59 95 4.0 9.0 0.00 0.00 0.00 86 1012.1
20260507000024 60 343 5.0 9.0 0.00 0.00 0.00 85 1011.8
20260506234515 60 42 3.0 11.0 0.00 0.00 0.00 84 1011.7
20260506233111 60 341 2.0 8.0 0.00 0.00 0.00 85 1011.8
20260506231517 61 289 4.0 10.0 0.00 0.00 0.00 83 1011.4
20260506230116 62 335 3.0 9.0 0.00 0.00 0.00 83 1011.1
20260506224609 63 324 3.0 8.0 0.00 0.00 0.00 82 1011.1
20260506223005 63 31 3.0 11.0 0.00 0.00 0.00 82 1011.2
20260506221512 64 4 2.0 7.0 0.00 0.00 0.00 82 1010.4
20260506220009 64 97 4.0 8.0 0.00 0.00 0.00 81 1010.4
20260506214513 65 45 1.0 10.0 0.00 0.00 0.00 80 1010.7
20260506213017 65 4 2.0 9.0 0.00 0.00 0.00 80 1010.5
20260506211619 65 354 3.0 9.0 0.00 0.00 0.00 80 1010.4
20260506210105 65 8 2.0 12.0 0.00 0.00 0.00 80 1010.7
20260506204512 67 293 4.0 10.0 0.00 0.00 0.00 78 1010.7
20260506203011 68 317 4.0 10.0 0.00 0.00 0.00 78 1010.1
20260506201618 69 252 4.0 14.0 0.00 0.00 0.00 77 1009.8
20260506200010 70 359 6.0 10.0 0.00 0.00 0.00 78 1009.7
20260506194506 70 354 4.0 11.0 0.00 0.00 0.00 79 1009.8
20260506193111 71 347 4.0 11.0 0.00 0.00 0.00 78 1010.2
20260506191510 72 344 4.0 9.0 0.00 0.00 0.00 80 1010.3
20260506190011 70 77 4.0 9.0 0.00 0.00 0.00 83 1010.3
20260506184507 70 16 3.0 6.0 0.00 0.00 0.00 83 1010.5
20260506183114 68 336 2.0 10.0 0.00 0.00 0.00 85 1011.2
20260506181536 68 81 3.0 10.0 0.00 0.00 0.00 86 1011.5
20260506180105 71 359 5.0 13.0 0.00 0.00 0.00 82 1011.9
20260506174516 73 13 3.0 8.0 0.00 0.00 0.00 82 1011.6
20260506173005 73 319 2.0 9.0 0.00 0.00 0.00 82 1012.1
20260506171505 72 333 3.0 8.0 0.00 0.00 0.00 84 1012.2
20260506164627 73 317 3.0 8.0 0.00 0.00 0.00 84 1011.7
20260506163014 75 316 2.0 9.0 0.00 0.00 0.00 83 1011.1
20260506161508 75 4 0.0 5.0 0.00 0.00 0.00 83 1011.1
20260506160134 75 66 0.0 5.0 0.00 0.00 0.00 83 1010.6
20260506154514 76 4 1.0 7.0 0.00 0.00 0.00 80 1010.8
20260506153012 80 264 0.0 1.0 0.00 0.00 0.00 81 1010.4
20260506151609 80 195 0.0 0.0 0.00 0.00 0.00 83 1010.3
20260506150004 79 127 0.0 1.0 0.00 0.00 0.00 84 1010.0
20260506144612 78 45 0.0 0.0 0.00 0.00 0.00 85 1010.0
20260506143105 77 18 0.0 0.0 0.00 0.00 0.00 86 1010.1
20260506141605 77 349 0.0 0.0 0.00 0.00 0.00 86 1010.0
20260506140013 76 323 0.0 0.0 0.00 0.00 0.00 87 1010.0
20260506134612 76 166 0.0 0.0 0.00 0.00 0.00 89 1009.8
20260506133116 75 176 0.0 0.0 0.00 0.00 0.00 90 1009.7
20260506131519 75 179 0.0 0.0 0.00 0.00 0.00 91 1009.6
20260506130014 74 179 0.0 0.0 0.00 0.00 0.00 91 1009.6
20260506124623 74 179 0.0 0.0 0.00 0.00 0.00 91 1009.5
20260506123012 74 179 0.0 0.0 0.00 0.00 0.00 91 1009.4
20260506121512 74 179 0.0 0.0 0.00 0.00 0.00 91 1009.1
20260506120116 73 179 0.0 0.0 0.00 0.00 0.00 91 1009.0
20260506114518 73 179 0.0 0.0 0.00 0.00 0.00 91 1009.0
20260506113011 73 179 0.0 0.0 0.00 0.00 0.00 91 1008.7
20260506111515 73 179 0.0 0.0 0.00 0.00 0.00 91 1008.4
20260506110020 73 179 0.0 0.0 0.00 0.00 0.00 91 1008.3
20260506104531 73 179 0.0 0.0 0.00 0.00 0.00 91 1008.2
20260506103035 73 179 0.0 0.0 0.00 0.00 0.00 91 1008.0
20260506101508 73 179 0.0 0.0 0.00 0.00 0.00 91 1007.8
20260506100018 73 179 0.0 0.0 0.00 0.00 0.00 90 1007.9
20260506094518 73 179 0.0 0.0 0.00 0.00 0.00 90 1007.4
20260506093018 73 211 0.0 0.0 0.00 0.00 0.00 90 1007.3
20260506091516 73 211 0.0 0.0 0.00 0.00 0.00 90 1007.5
20260506090016 73 206 0.0 0.0 0.00 0.00 0.00 90 1007.6